Weather History for KGZH - June, 2013

Change the Weather History Date:

Sunday, June 23, 2013

  Actual Average (KPRN) Record (KPRN)
Temperature  
Mean Temperature 78 °F -  
Max Temperature 88 °F 90 °F 106 °F (1930)
Min Temperature 69 °F 67 °F 55 °F (1972)
Cooling Degree Days 13    
Growing Degree Days 28 (Base 50)    
Moisture  
Dew Point 71 °F    
Average Humidity 81    
Maximum Humidity 94    
Minimum Humidity 61    
Precipitation  
Precipitation 0.00 in - - ()
Sea Level Pressure  
Sea Level Pressure 30.11 in    
Wind  
Wind Speed 3 mph (SE)    
Max Wind Speed 14 mph    
Max Gust Speed 22 mph    
Visibility 10 miles    
Events Thunderstorm    
Averages and records for this station are not official NWS values.
T = Trace of Precipitation, MM = Missing Value Source: NWS Daily Summary

Daily Weather History Graph

Daily Weather History Graph

Search for Another Location

Airport or City:

Trip Planner

Search our weather history database for the weather conditions in past years. The results will help you decide how hot, cold, wet, or windy it might be!

Date:

Astronomy

Jun. 23, 2013 Rise Set
Actual Time 5:44 AM CDT 7:56 PM CDT
Civil Twilight 5:16 AM CDT 8:24 PM CDT
Nautical Twilight 4:42 AM CDT 8:58 PM CDT
Astronomical Twilight 4:05 AM CDT 9:35 PM CDT
Moon 8:13 PM CDT (6/23) 5:57 AM CDT (6/23)
Length of Visible Light 15h 07m
Length of Day
14h 11m
Full, 100% of the Moon is Illuminated
Jun 23
Full
Jun 29
Last Quarter
Jul 8
New
Jul 15
First Quarter
Jul 22
Full

Hourly Weather History & Observations

Time (CDT) Temp. Heat Index Dew Point Humidity Pressure Visibility Wind Dir Wind Speed Gust Speed Precip Events Conditions
12:53 AM 73.9 °F - 70.0 °F 87% 30.09 in 10.0 mi Calm Calm - N/A   Clear
1:53 AM 73.9 °F - 70.0 °F 87% 30.07 in 10.0 mi East 3.5 mph - N/A   Clear
2:53 AM 73.0 °F - 70.0 °F 90% 30.06 in 10.0 mi SSE 3.5 mph - N/A   Clear
3:29 AM 73.4 °F - 69.8 °F 88% 30.08 in 10.0 mi Calm Calm - N/A   Mostly Cloudy
3:53 AM 71.1 °F - 69.1 °F 93% 30.07 in 9.0 mi Calm Calm - N/A   Mostly Cloudy
4:01 AM 71.6 °F - 68.0 °F 88% 30.08 in 9.0 mi Calm Calm - N/A   Scattered Clouds
4:53 AM 71.1 °F - 68.0 °F 90% 30.07 in 7.0 mi Calm Calm - N/A   Clear
5:11 AM 69.8 °F - 68.0 °F 94% 30.08 in 2.0 mi Calm Calm - N/A   Clear
5:20 AM 69.8 °F - 68.0 °F 94% 30.09 in 9.0 mi Calm Calm - N/A   Clear
5:53 AM 71.1 °F - 68.0 °F 90% 30.09 in 8.0 mi Calm Calm - N/A   Clear
6:41 AM 73.4 °F - 69.8 °F 88% 30.11 in 9.0 mi ESE 4.6 mph - N/A   Partly Cloudy
6:53 AM 73.0 °F - 70.0 °F 90% 30.10 in 10.0 mi SE 3.5 mph - N/A   Scattered Clouds
7:07 AM 73.4 °F - 69.8 °F 88% 30.12 in 10.0 mi East 4.6 mph - N/A   Mostly Cloudy
7:53 AM 73.9 °F - 71.1 °F 91% 30.13 in 10.0 mi ESE 4.6 mph - N/A   Overcast
8:53 AM 77.0 °F - 72.0 °F 84% 30.14 in 10.0 mi SE 3.5 mph - N/A   Overcast
9:30 AM 78.8 °F - 71.6 °F 78% 30.15 in 10.0 mi SE 4.6 mph - N/A   Overcast
9:46 AM 80.6 °F 85.4 °F 73.4 °F 79% 30.15 in 10.0 mi East 4.6 mph - N/A   Mostly Cloudy
9:53 AM 81.0 °F 85.8 °F 73.0 °F 77% 30.14 in 10.0 mi Calm Calm - N/A   Overcast
10:15 AM 82.4 °F 88.2 °F 73.4 °F 74% 30.15 in 10.0 mi East 6.9 mph - N/A   Mostly Cloudy
10:53 AM 84.0 °F 90.2 °F 73.0 °F 69% 30.14 in 10.0 mi East 3.5 mph - N/A   Mostly Cloudy
11:06 AM 84.2 °F 89.6 °F 71.6 °F 66% 30.14 in 10.0 mi Variable 4.6 mph - N/A   Scattered Clouds
11:13 AM 84.2 °F 89.6 °F 71.6 °F 66% 30.14 in 10.0 mi Calm Calm - N/A   Mostly Cloudy
11:40 AM 84.2 °F 90.9 °F 73.4 °F 70% 30.14 in 10.0 mi East 6.9 mph - N/A   Mostly Cloudy
11:53 AM 86.0 °F 92.2 °F 72.0 °F 63% 30.13 in 10.0 mi ENE 6.9 mph - N/A   Scattered Clouds
12:53 PM 87.1 °F 93.6 °F 72.0 °F 61% 30.13 in 10.0 mi SE 13.8 mph 20.7 mph N/A   Mostly Cloudy
1:06 PM 80.6 °F 83.9 °F 69.8 °F 70% 30.14 in 10.0 mi South 11.5 mph 21.9 mph N/A Thunderstorm Overcast
1:21 PM 78.8 °F - 69.8 °F 74% 30.13 in 10.0 mi South 10.4 mph 21.9 mph N/A   Mostly Cloudy
1:53 PM 79.0 °F - 69.1 °F 72% 30.11 in 10.0 mi South 4.6 mph - N/A   Partly Cloudy
2:53 PM 79.0 °F - 71.1 °F 77% 30.11 in 10.0 mi SSE 6.9 mph - N/A   Clear
3:53 PM 80.1 °F 83.6 °F 71.1 °F 74% 30.09 in 10.0 mi South 6.9 mph - N/A   Clear
4:53 PM 82.0 °F 87.4 °F 73.0 °F 74% 30.09 in 10.0 mi SSE 6.9 mph - N/A   Clear
5:53 PM 81.0 °F 85.8 °F 73.0 °F 77% 30.09 in 10.0 mi ESE 6.9 mph - N/A   Clear
6:53 PM 80.1 °F 83.6 °F 71.1 °F 74% 30.09 in 10.0 mi South 4.6 mph - N/A   Partly Cloudy
7:53 PM 79.0 °F - 72.0 °F 79% 30.11 in 10.0 mi SSW 4.6 mph - N/A   Mostly Cloudy
8:53 PM 75.9 °F - 72.0 °F 87% 30.10 in 10.0 mi Calm Calm - N/A   Partly Cloudy
9:41 PM 75.2 °F - 71.6 °F 89% 30.13 in 10.0 mi Calm Calm - N/A   Mostly Cloudy
9:53 PM 75.9 °F - 72.0 °F 87% 30.13 in 10.0 mi Calm Calm - N/A   Overcast
10:00 PM 75.2 °F - 71.6 °F 89% 30.14 in 10.0 mi Calm Calm - N/A   Overcast
10:53 PM 75.9 °F - 73.0 °F 91% 30.13 in 10.0 mi ESE 4.6 mph - N/A   Scattered Clouds
11:53 PM 75.9 °F - 73.0 °F 91% 30.13 in 10.0 mi Calm Calm - N/A   Mostly Cloudy